56,28/09/2015 12:09,1443442151,59.88069,-3.9329,2,3,28/09/2015 12:05,1443441910,12.329,3,12.5,0,0,59.9004,-3.9231,239,3
57,28/09/2015 14:07,1443449278,59.9297,-3.9378,9,3,28/09/2015 14:05,1443449102,12.329,3,12.5,0,0,59.908,-3.9546,160,1
58,28/09/2015 14:08,1443449291,59.91381,-3.86643,8,2,28/09/2015 13:05,1443445534,12.329,3,12.5,0,0,59.9037,-3.9365,182,1
59,28/09/2015 15:06,1443452806,59.88488,-3.79031,6,3,28/09/2015 15:05,1443452744,12.329,3,12.5,0,0,59.9094,-3.9734,100,3
60,28/09/2015 16:08,1443456507,59.90954,-4.00917,3,3,28/09/2015 16:05,1443456308,12.329,3,12.5,0,0,59.911,-3.9914,199,1
61,28/09/2015 17:06,1443459963,59.90954,-4.00917,3,3,28/09/2015 17:05,1443459944,12.329,3,12.5,0,0,59.9136,-3.995,55,4
62,28/09/2015 19:08,1443467328,59.98488,-5.81761,176,2,28/09/2015 19:05,1443467133,12.329,3,12.5,0,0,59.9156,-3.9655,215,3
63,28/09/2015 19:09,1443467342,59.98802,-5.74627,165,2,28/09/2015 18:05,1443463524,12.286,3,12.5,0,0,59.9152,-3.9848,233,4
64,28/09/2015 20:05,1443470752,59.96283,-3.87126,5,2,28/09/2015 20:05,1443470713,12.329,3,12.5,0,0,59.9186,-3.9422,34,2
65,28/09/2015 22:06,1443477980,59.96071,-3.94272,9,2,28/09/2015 22:05,1443477908,12.286,3,12.5,0,0,59.928,-3.8855,73,3
66,28/09/2015 22:06,1443478000,59.97091,-3.58527,10,3,28/09/2015 21:05,1443474310,12.243,3,12.5,0,0,59.9228,-3.9145,86,2
67,29/09/2015 00:06,1443485205,59.83656,-6.22196,146,5,29/09/2015 00:05,1443485146,12.286,3,12.5,0,0,59.9398,-3.8505,82,1
68,29/09/2015 01:05,1443488746,59.91589,-3.79504,3,2,29/09/2015 01:05,1443488702,12.286,2,12.5,0,0,59.9466,-3.849,32,5
69,29/09/2015 01:06,1443488810,59.96283,-3.87126,2,2,28/09/2015 23:05,1443481513,12.243,2,12.5,0,0,59.9337,-3.863,99,1
70,29/09/2015 02:09,1443492550,59.96491,-3.79978,4,2,29/09/2015 02:05,1443492308,12.243,2,12.5,0,0,59.9543,-3.8548,224,3
71,29/09/2015 03:05,1443495927,60.01182,-3.8761,5,3,29/09/2015 03:05,1443495912,12.286,2,12.5,0,0,59.9593,-3.8652,3,5
72,29/09/2015 04:05,1443499555,60.0032,-3.01279,70,3,29/09/2015 04:05,1443499509,12.2,2,12.5,0,0,59.9638,-3.8735,45,3
73,29/09/2015 05:06,1443503169,59.96283,-3.87126,2,3,29/09/2015 05:05,1443503110,12.2,3,12.5,0,0,59.9659,-3.874,64,2
74,29/09/2015 06:07,1443506849,60.0139,-3.80453,4,2,29/09/2015 06:05,1443506730,12.2,3,12.5,0,0,59.969,-3.8643,130,4
75,29/09/2015 07:08,1443510509,59.99594,-3.80453,3,3,29/09/2015 07:05,1443510340,12.2,3,12.5,0,0,59.972,-3.8416,200,3
76,29/09/2015 08:07,1443514068,59.99799,-3.73295,3,2,29/09/2015 08:05,1443513911,12.243,3,12.5,0,0,59.9745,-3.8057,158,3
77,29/09/2015 09:07,1443517677,59.96895,-3.65679,2,2,29/09/2015 09:05,1443517514,12.243,3,12.5,0,0,59.977,-3.7608,156,4
78,29/09/2015 10:06,1443521176,59.96695,-3.72829,3,6,29/09/2015 10:05,1443521142,12.243,3,12.5,0,0,59.9805,-3.7163,65,2
79,29/09/2015 11:06,1443524771,59.96895,-3.65679,3,3,29/09/2015 11:05,1443524713,12.243,3,12.4,0,0,59.9855,-3.6807,60,1
80,29/09/2015 12:06,1443528414,60.01992,-3.58976,13,2,29/09/2015 12:05,1443528310,12.243,3,12.5,0,0,59.9893,-3.6557,98,3
81,29/09/2015 13:05,1443531921,60.02185,-3.51815,4,5,29/09/2015 13:05,1443531939,12.243,3,12.5,0,0,59.9936,-3.6406,3,2
82,29/09/2015 14:05,1443535527,60.01795,-3.66136,2,2,29/09/2015 14:05,1443535510,12.2,3,12.4,0,0,59.9968,-3.6329,18,5
83,29/09/2015 16:05,1443542745,59.97284,-3.51375,2,2,29/09/2015 16:05,1443542710,12.286,3,12.4,0,0,59.9993,-3.639,40,2
84,29/09/2015 16:06,1443542764,59.97091,-3.58527,2,3,29/09/2015 15:05,1443539112,12.2,3,12.4,0,0,59.9986,-3.6338,50,3
85,29/09/2015 17:05,1443546346,59.97284,-3.51375,8,2,29/09/2015 17:05,1443546350,12.243,3,12.4,0,0,59.9987,-3.6431,39,2
86,29/09/2015 18:05,1443549935,60.05097,-3.59426,5,2,29/09/2015 18:05,1443549902,12.2,3,12.4,0,0,59.9992,-3.6388,20,4
87,29/09/2015 19:06,1443553576,60.01992,-3.58976,6,2,29/09/2015 19:05,1443553544,12.2,3,12.4,0,0,59.9996,-3.624,66,4
88,29/09/2015 20:06,1443557168,59.97091,-3.58527,4,6,29/09/2015 20:05,1443557121,12.243,3,12.4,0,0,60.0029,-3.5965,53,2
89,29/09/2015 21:06,1443560784,60.02185,-3.51815,3,4,29/09/2015 21:05,1443560703,12.243,3,12.4,0,0,60.0039,-3.5566,65,5
90,29/09/2015 22:06,1443564378,60.02374,-3.44652,4,2,29/09/2015 22:05,1443564315,12.243,3,12.4,0,0,60.0052,-3.5128,71,5
91,29/09/2015 23:05,1443567912,59.97473,-3.44222,3,2,29/09/2015 23:05,1443567953,12.243,3,12.4,0,0,60.0041,-3.4681,3,5
92,30/09/2015 01:05,1443575111,60.02559,-3.37489,6,2,30/09/2015 01:05,1443575144,12.286,3,12.4,0,0,60.0029,-3.4269,3,3
93,30/09/2015 01:05,1443575134,60.05665,-3.37912,7,2,30/09/2015 00:05,1443571514,12.2,3,12.4,0,0,60.0031,-3.438,17,1
94,30/09/2015 02:07,1443578825,60.02559,-3.37489,7,2,30/09/2015 02:05,1443578709,12.243,3,12.4,0,0,60.0046,-3.4303,113,2
95,30/09/2015 03:05,1443582331,60.02374,-3.44652,2,4,30/09/2015 03:05,1443582303,12.243,3,12.4,0,0,60.0063,-3.4447,19,5
96,30/09/2015 04:07,1443586033,59.88635,-5.51148,141,2,30/09/2015 04:05,1443585912,12.243,3,12.4,0,0,60.0077,-3.4626,116,1
97,30/09/2015 05:06,1443589588,59.97473,-3.44222,3,3,30/09/2015 05:05,1443589513,12.243,3,12.4,0,0,60.0085,-3.4758,71,5
98,30/09/2015 06:08,1443593334,59.96491,-3.79978,809,3,30/09/2015 06:05,1443593111,12.243,3,12.4,0,0,60.0068,-3.478,217,1
99,30/09/2015 07:05,1443596747,59.97473,-3.44222,4,3,30/09/2015 07:05,1443596717,12.286,3,12.4,0,0,60.0038,-3.4712,34,2
100,30/09/2015 09:06,1443603963,60.02374,-3.44652,3,3,30/09/2015 09:05,1443603902,12.286,2,12.4,0,0,59.9964,-3.4271,48,2
101,30/09/2015 09:07,1443604037,59.97473,-3.44222,2,5,30/09/2015 08:05,1443600315,12.243,2,12.4,0,0,60.0003,-3.4531,119,2
102,30/09/2015 10:07,1443607642,60.02559,-3.37489,14,3,30/09/2015 10:05,1443607535,12.243,2,12.4,0,0,59.9944,-3.3946,133,3
103,30/09/2015 11:05,1443611145,59.98016,-3.22755,2,5,30/09/2015 11:05,1443611108,12.243,2,12.4,0,0,59.9944,-3.3601,36,2
104,30/09/2015 12:06,1443614771,59.97838,-3.29911,3,4,30/09/2015 12:05,1443614711,12.243,2,12.4,0,0,59.996,-3.3292,51,1
105,30/09/2015 13:09,1443618594,59.98016,-3.22755,2,3,30/09/2015 13:05,1443618312,12.243,3,12.4,0,0,59.9981,-3.3044,33,5
106,30/09/2015 14:05,1443621957,60.02917,-3.23159,7,3,30/09/2015 14:05,1443621944,12.286,3,12.4,0,0,59.9998,-3.2879,49,2
107,30/09/2015 15:09,1443625760,59.98189,-3.15597,4,2,30/09/2015 15:05,1443625502,12.2,3,12.4,0,0,60.0017,-3.2807,243,1
108,30/09/2015 16:05,1443629124,59.97838,-3.29911,3,3,30/09/2015 16:05,1443629144,12.243,3,12.4,0,0,60.0012,-3.2822,3,3
109,30/09/2015 17:08,1443632934,59.97838,-3.29911,4,2,30/09/2015 17:05,1443632703,12.2,3,12.4,0,0,59.9999,-3.2913,225,2
110,30/09/2015 18:05,1443636316,60.0274,-3.30324,3,3,30/09/2015 18:05,1443636312,12.2,3,12.4,0,0,59.9993,-3.3007,3,3
111,30/09/2015 19:05,1443639959,60.0274,-3.30324,7,3,30/09/2015 19:05,1443639907,12.2,3,12.4,0,0,60.0014,-3.3047,50,1
112,30/09/2015 20:05,1443643528,60.02917,-3.23159,2,3,30/09/2015 20:05,1443643512,12.2,3,12.4,0,0,60.0067,-3.2954,21,1
113,30/09/2015 21:05,1443647108,59.97838,-3.29911,4,3,30/09/2015 21:05,1443647148,12.2,3,12.4,0,0,60.0159,-3.2712,3,1
114,30/09/2015 22:09,1443650951,60.03091,-3.15992,3,2,30/09/2015 22:05,1443650704,12.2,3,12.4,0,0,60.0263,-3.2317,242,1
115,30/09/2015 23:05,1443654324,60.03091,-3.15992,14,3,30/09/2015 23:05,1443654311,12.243,3,12.4,0,0,60.0331,-3.1778,18,4
116,01/10/2015 00:07,1443658070,60.0326,-3.08825,3,5,01/10/2015 00:05,1443657909,12.2,3,12.4,0,0,60.038,-3.1213,158,5
117,01/10/2015 01:05,1443661508,60.03426,-3.01656,6,2,01/10/2015 01:05,1443661516,12.243,3,12.4,0,0,60.0382,-3.0755,3,2
118,01/10/2015 02:06,1443665177,60.0032,-3.01279,10,3,01/10/2015 02:05,1443665109,12.2,3,12.4,0,0,60.0382,-3.0448,67,3
119,01/10/2015 03:06,1443668771,60.03426,-3.01656,4,3,01/10/2015 03:05,1443668738,12.2,3,12.4,0,0,60.0384,-3.033,53,1
120,01/10/2015 04:07,1443672478,60.06696,-2.94856,4,2,01/10/2015 04:05,1443672345,12.2,3,12.4,0,0,60.0397,-3.0375,167,1
121,01/10/2015 05:06,1443676005,60.03426,-3.01656,2,2,01/10/2015 05:05,1443675930,12.2,3,12.4,0,0,60.0422,-3.0541,87,3
122,01/10/2015 06:05,1443679524,59.98054,-4.30524,90,2,01/10/2015 06:05,1443679544,12.2,3,12.4,0,0,60.0444,-3.0701,19,3
123,01/10/2015 07:05,1443683112,60.11269,-3.096,6,3,01/10/2015 07:05,1443683108,12.2,3,12.4,0,0,60.051,-3.0811,3,4
124,01/10/2015 08:05,1443686733,60.06163,-1.36564,158,3,01/10/2015 08:05,1443686711,12.2,3,12.4,0,0,60.0595,-3.0774,22,2
125,01/10/2015 09:05,1443690311,60.06534,-3.02034,2,4,01/10/2015 09:05,1443690310,12.2,3,12.4,0,0,60.0673,-3.0561,3,2
126,01/10/2015 10:06,1443693964,60.08488,-2.94856,4,3,01/10/2015 10:05,1443693915,12.157,3,12.4,0,0,60.0745,-3.0181,54,3
127,01/10/2015 11:07,1443697637,60.06855,-2.87677,4,3,01/10/2015 11:05,1443697547,12.157,3,12.4,0,0,60.0798,-2.9661,119,1
128,01/10/2015 12:06,1443701215,60.08646,-2.87677,4,2,01/10/2015 12:05,1443701109,12.114,3,12.4,0,0,60.0826,-2.9101,108,1
129,01/10/2015 13:07,1443704858,60.08801,-2.80496,3,4,01/10/2015 13:05,1443704710,12.028,3,12.4,0,0,60.0838,-2.8592,146,2
130,01/10/2015 14:05,1443708341,60.08801,-2.80496,6,2,01/10/2015 14:05,1443708310,12.028,3,12.4,0,0,60.0808,-2.82,34,4
131,01/10/2015 15:05,1443711940,60.07306,-2.66133,3,2,01/10/2015 15:05,1443711944,12.028,3,12.4,0,0,60.0799,-2.8007,22,1
132,01/10/2015 16:05,1443715522,60.08801,-2.80496,3,4,01/10/2015 16:05,1443715506,11.899,3,12.4,0,0,60.0842,-2.8057,3,5
133,01/10/2015 18:05,1443722728,60.11911,-2.80848,2,563,01/10/2015 18:05,1443722758,12.028,3,12.4,0,0,60.114,-2.8308,20,4
134,01/10/2015 18:05,1443722739,60.11911,-2.80848,2,313,01/10/2015 17:05,1443719145,11.899,3,12.4,0,0,60.097,-2.8192,34,5
135,01/10/2015 19:05,1443726318,60.12208,-2.66467,4,2,01/10/2015 19:05,1443726300,11.942,3,12.4,0,0,0,0,3,5
136,01/10/2015 20:05,1443729916,60.1681,-2.81202,2,4,01/10/2015 20:05,1443729900,11.985,3,12.4,0,0,0,0,3,1
137,01/10/2015 21:06,1443733567,60.17108,-2.66802,3,2,01/10/2015 21:05,1443733500,11.985,3,12.4,0,0,0,0,61,3
138,01/10/2015 22:06,1443737162,60.20365,-2.59928,3,5,01/10/2015 22:05,1443737100,12.028,3,12.4,0,0,0,0,57,3
139,01/10/2015 23:09,1443740965,60.17251,-2.59602,3,3,01/10/2015 23:05,1443740758,12.028,3,12.4,0,0,0,0,242,1
140,02/10/2015 00:06,1443744406,60.1739,-2.524,5,2,02/10/2015 00:05,1443744300,12.028,3,12.4,0,0,0,0,87,3
141,02/10/2015 01:05,1443747924,60.1739,-2.524,5,3,02/10/2015 01:05,1443747900,12.071,3,12.4,0,0,0,0,3,2
142,02/10/2015 02:05,1443751511,60.17525,-2.45197,7,4,02/10/2015 02:05,1443751542,12.028,3,12.4,0,0,60.1446,-2.5314,3,2
143,02/10/2015 03:05,1443755148,60.20771,-2.38294,7,3,02/10/2015 03:05,1443755115,12.028,3,12.4,0,0,60.1362,-2.516,38,4
144,02/10/2015 04:07,1443758875,60.1739,-2.524,5,2,02/10/2015 04:05,1443758700,12.028,3,12.4,0,0,0,0,164,1
145,02/10/2015 05:05,1443762313,60.1249,-2.52083,2,2,02/10/2015 05:05,1443762359,12.071,3,12.4,0,0,60.1325,-2.5214,3,4
146,02/10/2015 07:10,1443769810,60.1249,-2.52083,5,2,02/10/2015 07:05,1443769500,12.114,3,12.4,0,0,0,0,45,3
147,02/10/2015 08:08,1443773287,60.23282,-3.46823,809,3,02/10/2015 08:05,1443773100,12.114,3,12.4,0,0,0,0,176,1
148,02/10/2015 08:08,1443773301,60.23468,-3.39615,809,3,02/10/2015 06:05,1443765900,12.028,3,12.4,0,0,0,0,191,1
149,02/10/2015 09:05,1443776716,60.20639,-2.45506,5,3,02/10/2015 09:05,1443776700,12.114,3,12.4,0,0,0,0,3,3
150,02/10/2015 10:05,1443780337,60.11725,-0.35989,138,3,02/10/2015 10:05,1443780300,12.071,3,12.4,0,0,0,0,19,1
151,02/10/2015 11:10,1443784207,60.17784,-2.3079,3,4,02/10/2015 11:05,1443783900,12.071,3,12.4,0,0,0,0,39,1
152,02/10/2015 12:06,1443787592,60.1484,0.36035,185,2,02/10/2015 12:05,1443787500,12.114,3,12.3,0,0,0,0,71,2
153,02/10/2015 13:05,1443791129,60.17784,-2.3079,2,3,02/10/2015 13:05,1443791100,12.071,3,12.4,0,0,0,0,18,1
154,02/10/2015 14:05,1443794751,60.17525,-2.45197,3,5,02/10/2015 14:05,1443794700,12.114,3,12.4,0,0,0,0,42,1
155,02/10/2015 15:06,1443798361,60.17657,-2.37994,9,3,02/10/2015 15:05,1443798300,12.114,3,12.3,0,0,0,0,53,4
156,02/10/2015 16:06,1443801982,60.12883,-2.305,3,2,02/10/2015 16:05,1443801900,12.071,3,12.3,0,0,0,0,72,3
157,02/10/2015 17:06,1443805607,60.09772,-2.30211,4,3,02/10/2015 17:05,1443805500,12.028,3,12.3,0,0,0,0,98,2
158,02/10/2015 18:07,1443809220,60.17657,-2.37994,3,3,02/10/2015 18:05,1443809100,12.028,3,12.3,0,0,0,0,99,3
159,02/10/2015 19:06,1443812771,60.27814,0,161,2,02/10/2015 19:05,1443812700,12.028,3,12.3,0,0,0,0,52,3
160,02/10/2015 20:05,1443816313,60.12756,-2.37695,3,2,02/10/2015 20:05,1443816300,11.985,3,12.3,0,0,0,0,3,4
161,02/10/2015 21:06,1443819965,60.17657,-2.37994,3,2,02/10/2015 21:05,1443819900,11.985,3,12.3,0,0,0,0,54,1
162,02/10/2015 22:05,1443823557,60.17525,-2.45197,3,2,02/10/2015 22:05,1443823502,11.985,3,12.3,0,0,0,0,37,1
163,02/10/2015 23:05,1443827116,60.17657,-2.37994,6,2,02/10/2015 23:05,1443827100,11.985,3,12.3,0,0,0,0,3,1
164,03/10/2015 00:06,1443830801,60.22288,-2.52718,15,2,03/10/2015 00:05,1443830700,11.985,3,12.3,0,0,0,0,84,1
165,03/10/2015 01:06,1443834364,60.21023,-2.23867,3,3,03/10/2015 01:05,1443834300,11.985,2,12.3,0,0,0,0,47,3
166,03/10/2015 02:06,1443838011,60.17908,-2.23585,3,3,03/10/2015 02:05,1443837900,11.985,2,12.3,0,0,0,0,105,5
167,03/10/2015 03:05,1443841514,60.14672,-2.305,2,2,03/10/2015 03:05,1443841500,12.028,2,12.3,0,0,0,0,3,5
168,03/10/2015 04:05,1443845158,60.12883,-2.305,11,3,03/10/2015 04:05,1443845100,11.985,2,12.3,0,0,0,0,52,1
169,03/10/2015 05:07,1443848842,60.12883,-2.305,3,4,03/10/2015 05:05,1443848700,11.985,3,12.3,0,0,0,0,123,1
170,03/10/2015 06:05,1443852337,60.17657,-2.37994,6,3,03/10/2015 06:05,1443852300,11.985,3,12.3,0,0,0,0,21,3
171,03/10/2015 07:05,1443855918,60.12756,-2.37695,3,2,03/10/2015 07:05,1443855900,11.942,3,12.3,0,0,0,0,3,3
172,03/10/2015 08:06,1443859595,60.16655,-2.884,61,3,03/10/2015 08:05,1443859500,11.985,3,12.3,0,0,0,0,81,1
173,03/10/2015 09:08,1443863297,60.14544,-2.37695,3,3,03/10/2015 09:05,1443863100,11.985,3,12.3,0,0,0,0,185,1
174,03/10/2015 10:05,1443866724,60.03598,-0.64617,131,2,03/10/2015 10:05,1443866700,11.985,3,12.3,0,0,0,0,16,2
175,03/10/2015 11:07,1443870436,60.17657,-2.37994,2,2,03/10/2015 11:05,1443870300,11.985,3,12.3,0,0,0,0,117,4
176,03/10/2015 12:05,1443873944,60.17525,-2.45197,5,2,03/10/2015 12:05,1443873900,11.985,3,12.3,0,0,0,0,36,2
177,03/10/2015 13:05,1443877508,60.12883,-2.305,11,3,03/10/2015 13:05,1443877500,11.985,3,12.3,0,0,0,0,3,1
178,03/10/2015 14:05,1443881151,60.17908,-2.23585,20,3,03/10/2015 14:05,1443881100,11.985,3,12.3,0,0,0,0,38,3
179,03/10/2015 15:05,1443884728,60.14672,-2.305,6,5,03/10/2015 15:05,1443884700,11.985,3,12.3,0,0,0,0,20,4
180,03/10/2015 16:05,1443888310,60.12883,-2.305,4,2,03/10/2015 16:05,1443888300,11.942,3,12.3,0,0,0,0,3,4
181,03/10/2015 17:05,1443891924,60.17908,-2.23585,5,3,03/10/2015 17:05,1443891900,11.856,3,12.3,0,0,0,0,18,2
182,03/10/2015 18:05,1443895536,60.17784,-2.3079,4,2,03/10/2015 18:05,1443895500,11.856,3,12.3,0,0,0,0,31,4
183,03/10/2015 19:06,1443899212,60.17657,-2.37994,3,3,03/10/2015 19:05,1443899100,11.856,3,12.3,0,0,0,0,97,2
184,03/10/2015 20:05,1443902727,60.17908,-2.23585,3,3,03/10/2015 20:05,1443902700,11.856,3,12.3,0,0,0,0,19,2
185,03/10/2015 21:05,1443906325,60.14544,-2.37695,4,3,03/10/2015 21:05,1443906300,11.856,3,12.3,0,0,0,0,18,2
186,03/10/2015 22:05,1443909947,60.20899,-2.31081,10,2,03/10/2015 22:05,1443909900,11.856,3,12.3,0,0,0,0,42,2
187,03/10/2015 23:05,1443913524,60.17657,-2.37994,3,2,03/10/2015 23:05,1443913500,11.813,3,12.3,0,0,0,0,18,1
188,04/10/2015 00:05,1443917129,60.17784,-2.3079,6,2,04/10/2015 00:05,1443917100,11.813,3,12.3,0,0,0,0,20,1
189,04/10/2015 01:08,1443920919,60.20899,-2.31081,3,2,04/10/2015 01:05,1443920700,11.813,3,12.3,0,0,0,0,203,2
190,04/10/2015 02:05,1443924323,60.17908,-2.23585,8,3,04/10/2015 02:05,1443924300,11.856,3,12.3,0,0,0,0,19,2
191,04/10/2015 03:05,1443927936,60.17908,-2.23585,8,2,04/10/2015 03:05,1443927900,11.813,3,12.3,0,0,0,0,18,1
192,04/10/2015 04:05,1443931549,60.14795,-2.23304,3,2,04/10/2015 04:05,1443931500,11.813,3,12.3,0,0,0,0,40,1
193,04/10/2015 05:06,1443935173,60.18027,-2.1638,3,2,04/10/2015 05:05,1443935100,11.813,3,12.3,0,0,0,0,67,1
194,04/10/2015 06:05,1443938720,60.14914,-2.16108,4,3,04/10/2015 06:05,1443938700,11.813,3,12.2,0,0,0,0,3,4
195,04/10/2015 07:07,1443942427,60.14795,-2.23304,2,2,04/10/2015 07:05,1443942300,11.813,3,12.2,0,0,0,0,113,2
196,04/10/2015 08:05,1443945923,60.31385,-5.66013,213,2,04/10/2015 08:05,1443945900,11.856,3,12.3,0,0,0,0,3,3
197,04/10/2015 09:06,1443949561,60.17908,-2.23585,2,2,04/10/2015 09:05,1443949500,11.813,3,12.3,0,0,0,0,53,4
198,04/10/2015 10:09,1443953350,60.26475,-4.48743,170,2,04/10/2015 10:05,1443953100,11.856,3,12.2,0,0,0,0,232,3
199,04/10/2015 11:09,1443956976,60.17908,-2.23585,2,3,04/10/2015 11:05,1443956700,11.942,3,12.2,0,0,0,0,3,3
200,04/10/2015 14:05,1443967526,60.17908,-2.23585,12,2,04/10/2015 14:05,1443967500,12.028,3,12.2,0,0,0,0,18,2
201,04/10/2015 14:06,1443967606,60.01725,0.78974,201,2,04/10/2015 13:05,1443963901,12.071,3,12.2,0,0,0,0,100,2
202,04/10/2015 14:07,1443967631,60.01766,0.71795,195,2,04/10/2015 12:05,1443960300,12.028,3,12.2,0,0,0,0,127,3
203,04/10/2015 15:05,1443971108,60.17908,-2.23585,3,5,04/10/2015 15:05,1443971100,12.028,3,12.2,0,0,0,0,3,2
204,04/10/2015 16:07,1443974825,60.17908,-2.23585,4,3,04/10/2015 16:05,1443974700,11.985,3,12.2,0,0,0,0,117,2
205,04/10/2015 17:05,1443978326,60.17908,-2.23585,3,2,04/10/2015 17:05,1443978300,11.985,3,12.2,0,0,0,0,20,1
206,04/10/2015 18:05,1443981940,60.21023,-2.23867,6,5,04/10/2015 18:05,1443981900,11.899,3,12.2,0,0,0,0,34,4
207,04/10/2015 19:08,1443985706,60.14795,-2.23304,7,2,04/10/2015 19:05,1443985500,11.856,3,12.2,0,0,0,0,201,3
208,04/10/2015 20:06,1443989175,60.21023,-2.23867,2,2,04/10/2015 20:05,1443989100,11.856,3,12.2,0,0,0,0,62,3
209,04/10/2015 22:05,1443996341,60.17908,-2.23585,5,2,04/10/2015 22:05,1443996300,11.856,3,12.2,0,0,0,0,36,5
210,04/10/2015 22:05,1443996351,60.17908,-2.23585,5,2,04/10/2015 21:05,1443992700,11.856,3,12.2,0,0,0,0,47,1
211,04/10/2015 23:05,1443999918,60.21023,-2.23867,5,2,04/10/2015 23:05,1443999900,11.856,3,12.2,0,0,0,0,3,4
212,05/10/2015 01:09,1444007390,60.22555,-2.38294,6,3,05/10/2015 01:05,1444007100,11.985,3,12.2,0,0,0,0,13,1
213,05/10/2015 02:06,1444010767,60.22807,-2.23867,7,2,05/10/2015 02:05,1444010700,12.028,3,12.2,0,0,0,0,53,2
214,05/10/2015 02:06,1444010804,60.25922,-2.24149,10,4,05/10/2015 00:05,1444003500,11.899,3,12.2,0,0,0,0,98,2
215,05/10/2015 03:06,1444014362,60.26042,-2.16926,11,2,05/10/2015 03:05,1444014300,12.028,3,12.2,0,0,0,0,57,1
216,05/10/2015 04:05,1444017914,60.22807,-2.23867,3,2,05/10/2015 04:05,1444017900,12.028,3,12.2,0,0,0,0,3,4
217,05/10/2015 05:05,1444021515,60.20899,-2.31081,3,2,05/10/2015 05:05,1444021500,12.028,3,12.2,0,0,0,0,3,4
217,05/10/2015 05:07,1444021656,60.22683,-2.31081,3,3,05/10/2015 05:05,1444021500,12.028,3,12.2,0,0,0,0,149,4
218,05/10/2015 06:05,1444025129,60.20899,-2.31081,3,3,05/10/2015 06:05,1444025100,12.028,3,12.2,0,0,0,0,23,1
219,05/10/2015 07:05,1444028706,60.26158,-2.09701,10,2,05/10/2015 07:05,1444028700,12.028,3,12.2,0,0,0,0,3,3
220,05/10/2015 08:08,1444032520,60.477,-7.52246,313,3,05/10/2015 08:05,1444032300,12.028,3,12.2,0,0,0,0,213,1
221,05/10/2015 09:05,1444035910,60.21023,-2.23867,5,4,05/10/2015 09:05,1444035900,12.028,3,12.2,0,0,0,0,3,5
222,05/10/2015 10:05,1444039540,60.29339,-4.56526,146,2,05/10/2015 10:05,1444039500,12.028,3,12.2,0,0,0,0,36,2
223,05/10/2015 11:06,1444043168,60.22683,-2.31081,3,2,05/10/2015 11:05,1444043100,12.028,3,12.2,0,0,0,0,51,2
224,05/10/2015 12:06,1444046815,60.2872,-3.76594,162,2,05/10/2015 12:05,1444046700,12.028,3,12.2,0,0,0,0,111,2
225,05/10/2015 13:05,1444050325,60.17784,-2.3079,5,3,05/10/2015 13:05,1444050300,12.071,3,12.2,0,0,0,0,18,2
226,05/10/2015 14:06,1444053981,60.22424,-2.45506,12,2,05/10/2015 14:05,1444053900,12.071,3,12.2,0,0,0,0,65,2
227,05/10/2015 15:05,1444057548,60.25798,-2.31372,9,2,05/10/2015 15:05,1444057500,12.071,3,12.2,0,0,0,0,38,5
228,05/10/2015 17:05,1444064750,60.25798,-2.31372,6,2,05/10/2015 17:05,1444064700,12.071,3,12.2,0,0,0,0,35,5
229,05/10/2015 17:08,1444064919,60.22683,-2.31081,2,3,05/10/2015 16:05,1444061100,12.028,3,12.2,0,0,0,0,209,1
230,05/10/2015 18:06,1444068371,60.25798,-2.31372,2,2,05/10/2015 18:05,1444068300,12.071,3,12.2,0,0,0,0,49,4
231,05/10/2015 19:07,1444072032,60.11185,-4.24968,129,5,05/10/2015 19:05,1444071900,12.028,3,12.2,0,0,0,0,117,1
232,05/10/2015 20:06,1444075575,60.25798,-2.31372,4,4,05/10/2015 20:05,1444075500,12.028,3,12.2,0,0,0,0,69,1
233,05/10/2015 21:09,1444079352,60.15087,-3.53141,137,2,05/10/2015 21:05,1444079100,12.028,3,12.2,0,0,0,0,241,2
234,05/10/2015 22:05,1444082716,60.25798,-2.31372,4,3,05/10/2015 22:05,1444082700,12.071,3,12.2,0,0,0,0,3,1
235,06/10/2015 00:05,1444089952,60.30567,-2.38896,7,2,06/10/2015 00:05,1444089900,12.071,3,12.2,0,0,0,0,49,3
236,06/10/2015 01:06,1444093604,60.28655,-2.46126,4,3,06/10/2015 01:05,1444093500,12.071,3,12.2,0,0,0,0,98,3
237,06/10/2015 02:05,1444097125,60.25798,-2.31372,2,3,06/10/2015 02:05,1444097100,12.028,3,12.2,0,0,0,0,20,5
238,06/10/2015 02:05,1444097144,60.30819,-2.24432,2,5,05/10/2015 23:05,1444086300,12.028,3,12.2,0,0,0,0,33,5
239,06/10/2015 03:07,1444100862,60.28915,-2.31664,3,4,06/10/2015 03:05,1444100700,12.028,3,12.2,0,0,0,0,157,3
240,06/10/2015 04:07,1444104450,60.30695,-2.31664,4,6,06/10/2015 04:05,1444104301,12.028,3,12.1,0,0,0,0,147,4
241,06/10/2015 05:05,1444107906,60.29039,-2.24432,16,3,06/10/2015 05:05,1444107900,12.028,3,12.2,0,0,0,0,3,2
242,06/10/2015 06:05,1444111505,60.33937,-2.24716,3,3,06/10/2015 06:05,1444111500,11.985,3,12.2,0,0,0,0,3,4
243,06/10/2015 07:08,1444115294,60.38833,-2.25001,12,2,06/10/2015 07:05,1444115100,11.985,3,12.2,0,0,0,0,188,2
244,06/10/2015 09:05,1444122308,60.33813,-2.31957,3,2,06/10/2015 09:05,1444122300,12.028,3,12.1,0,0,0,0,3,2
245,06/10/2015 09:05,1444122324,60.33685,-2.39198,3,3,06/10/2015 08:05,1444118700,12.028,3,12.1,0,0,0,0,17,4
246,06/10/2015 10:05,1444125906,60.49725,-4.73945,152,2,06/10/2015 10:05,1444125900,11.985,3,12.2,0,0,0,0,3,1
247,06/10/2015 11:07,1444129638,60.33813,-2.31957,2,5,06/10/2015 11:05,1444129500,11.942,3,12.2,0,0,0,0,130,2
248,06/10/2015 14:05,1444140308,60.3858,-2.39501,3,4,06/10/2015 14:05,1444140300,11.942,3,12.1,0,0,0,0,3,2
249,06/10/2015 14:05,1444140319,60.417,-2.39804,3,3,06/10/2015 13:05,1444136700,11.985,3,12.1,0,0,0,0,16,2
250,06/10/2015 14:05,1444140333,60.47112,-3.56726,132,3,06/10/2015 12:05,1444133100,11.942,3,12.1,0,0,0,0,28,5
251,06/10/2015 15:05,1444143915,60.46723,-2.32841,7,2,06/10/2015 15:05,1444143900,11.856,3,12.1,0,0,0,0,3,1
252,06/10/2015 17:05,1444151106,60.43602,-2.32545,5,3,06/10/2015 17:05,1444151100,11.856,2,12.2,0,0,0,0,3,3
253,06/10/2015 17:06,1444151184,60.41829,-2.32545,3,2,06/10/2015 16:05,1444147500,11.856,2,12.1,0,0,0,0,79,1
254,06/10/2015 18:05,1444154741,60.35804,0.2901,163,3,06/10/2015 18:05,1444154700,11.856,2,12.1,0,0,0,0,38,3
255,06/10/2015 19:06,1444158396,60.45654,-4.07526,132,2,06/10/2015 19:05,1444158300,11.856,2,12.1,0,0,0,0,82,4
256,06/10/2015 20:05,1444161911,60.41829,-2.32545,3,3,06/10/2015 20:05,1444161900,11.856,2,12.1,0,0,0,0,3,2
257,06/10/2015 21:08,1444165685,60.44915,-3.19999,79,4,06/10/2015 21:05,1444165500,11.856,3,12.1,0,0,0,0,172,1
258,06/10/2015 22:05,1444169116,60.49846,-2.33137,7,3,06/10/2015 22:05,1444169100,11.856,3,12.1,0,0,0,0,3,2
259,06/10/2015 23:05,1444172709,60.46594,-2.40108,3,3,06/10/2015 23:05,1444172700,11.813,3,12.1,0,0,0,0,3,1
260,07/10/2015 00:07,1444176462,60.46594,-2.40108,3,2,07/10/2015 00:05,1444176300,11.77,3,12.1,0,0,0,0,151,4
261,07/10/2015 01:09,1444180180,60.51614,-2.33137,3,2,07/10/2015 01:05,1444179900,11.813,2,12.1,0,0,0,0,8,1
262,07/10/2015 04:05,1444190727,60.51485,-2.40414,3,3,07/10/2015 04:05,1444190700,11.813,2,12.1,0,0,0,0,19,2
263,07/10/2015 04:05,1444190746,60.54609,-2.4072,3,5,07/10/2015 03:05,1444187100,11.813,2,12.1,0,0,0,0,35,4
264,07/10/2015 04:06,1444190792,60.54609,-2.4072,2,3,07/10/2015 02:05,1444183500,11.813,2,12.1,0,0,0,0,85,3